Starlink 11421

operational
NORAD ID: 61945 Int'l Des: 2024-209 Owner: SPXS Country: US Constellation: starlink
LEOCIRCULAR

About Starlink 11421

Description loading...

Live Position

Loading 3D Globe...

Upcoming Passes

Altitude History

Altitude vs Time

uPlot chart will show altitude changes over time

Two-Line Element Set

1 61945U 24209G 25258.20473044 .00387238 00000-0 30375-2 0 9999
2 61945 53.1577 156.5134 0000978 110.3149 249.7974 15.69842553 49118
Epoch: Sep 15, 2025 • Age: 18 hours

Current Status

Altitude 376.8 km
Velocity 7.68 km/s
Sub-Earth Point -53.30°S, 86.05°E
Launch Date Nov 14, 2024
Age 0.8 years
Type internet

Technical Details

Classification Payload
Mass 960.00 kg
Dry Mass 910.00 kg
Total Mass 960.00 kg
Length 0.30 m
Diameter 4.10 m
Span 29.00 m
Shape Box + pan
Manufacturer SPXS
Bus Type Starlink V2MD
Phase Status In Orbit
Owner/State SPXS/US

Large Constellations

Loading constellations...